| time (UTC) | temp F | wind direction | speed knots | gust knots | rain 1hr in | rain 24hr in | rain mn in | humidity % | barometer mb |
| 20260506103008 | 47 | 318 | 3.5 | 11.3 | 0.01 | 0.64 | 0.59 | 91 | 1008.1 |
| 20260506102507 | 47 | 360 | 4.3 | 11.3 | 0.02 | 0.64 | 0.59 | 91 | 1008.0 |
| 20260506102005 | 47 | 352 | 5.2 | 11.3 | 0.02 | 0.64 | 0.59 | 91 | 1008.0 |
| 20260506101511 | 47 | 45 | 2.6 | 10.4 | 0.01 | 0.63 | 0.59 | 92 | 1008.0 |
| 20260506100514 | 47 | 59 | 2.6 | 7.8 | 0.01 | 0.63 | 0.59 | 92 | 1007.9 |
| 20260506100021 | 47 | 331 | 2.6 | 9.6 | 0.01 | 0.63 | 0.59 | 92 | 1007.9 |
| 20260506095010 | 46 | 5 | 3.5 | 8.7 | 0.01 | 0.63 | 0.59 | 92 | 1007.8 |
| 20260506094527 | 46 | 9 | 2.6 | 9.6 | 0.01 | 0.62 | 0.58 | 92 | 1007.8 |
| 20260506094004 | 46 | 360 | 3.5 | 12.2 | 0.01 | 0.62 | 0.58 | 92 | 1007.8 |
| 20260506093031 | 46 | 340 | 2.6 | 10.4 | 0.01 | 0.62 | 0.58 | 92 | 1007.8 |
| 20260506092510 | 46 | 352 | 3.5 | 8.7 | 0.00 | 0.62 | 0.57 | 92 | 1007.7 |
| 20260506091010 | 46 | 23 | 5.2 | 12.2 | 0.01 | 0.62 | 0.57 | 92 | 1007.6 |
| 20260506090509 | 45 | 21 | 3.5 | 11.3 | 0.01 | 0.62 | 0.57 | 92 | 1007.6 |
| 20260506085511 | 45 | 32 | 6.1 | 10.4 | 0.01 | 0.62 | 0.57 | 92 | 1007.6 |
| 20260506085008 | 45 | 15 | 3.5 | 13.9 | 0.01 | 0.62 | 0.57 | 92 | 1007.6 |
| 20260506084515 | 45 | 41 | 6.1 | 13.9 | 0.00 | 0.61 | 0.56 | 92 | 1007.6 |
| 20260506084008 | 45 | 38 | 2.6 | 10.4 | 0.01 | 0.61 | 0.56 | 92 | 1007.6 |
| 20260506083508 | 45 | 37 | 6.1 | 11.3 | 0.01 | 0.61 | 0.56 | 92 | 1007.5 |
| 20260506083029 | 45 | 350 | 6.1 | 11.3 | 0.01 | 0.61 | 0.56 | 92 | 1007.5 |
| 20260506082513 | 45 | 26 | 4.3 | 12.2 | 0.02 | 0.61 | 0.56 | 92 | 1007.6 |
| 20260506082012 | 45 | 88 | 4.3 | 12.2 | 0.02 | 0.61 | 0.56 | 92 | 1007.5 |
| 20260506081526 | 45 | 13 | 4.3 | 12.2 | 0.02 | 0.61 | 0.56 | 92 | 1007.4 |
| 20260506081007 | 45 | 352 | 7.8 | 12.2 | 0.01 | 0.60 | 0.55 | 93 | 1007.4 |
| 20260506073507 | 46 | 43 | 3.5 | 7.8 | 0.03 | 0.59 | 0.55 | 93 | 1007.2 |
| 20260506073021 | 46 | 87 | 1.7 | 11.3 | 0.03 | 0.59 | 0.55 | 93 | 1007.2 |
| 20260506072512 | 46 | 360 | 3.5 | 11.3 | 0.02 | 0.59 | 0.54 | 93 | 1007.2 |
| 20260506072011 | 46 | 59 | 7.0 | 11.3 | 0.03 | 0.59 | 0.54 | 93 | 1007.1 |
| 20260506071519 | 46 | 30 | 3.5 | 7.8 | 0.03 | 0.59 | 0.54 | 93 | 1007.1 |
| 20260506071007 | 46 | 47 | 2.6 | 9.6 | 0.03 | 0.59 | 0.54 | 93 | 1007.1 |
| 20260506070513 | 46 | 46 | 3.5 | 9.6 | 0.02 | 0.58 | 0.53 | 93 | 1007.1 |
| 20260506062511 | 47 | 30 | 3.5 | 9.6 | 0.03 | 0.57 | 0.51 | 93 | 1006.9 |
| 20260506062013 | 47 | 360 | 3.5 | 9.6 | 0.03 | 0.56 | 0.51 | 93 | 1006.7 |
| 20260506061521 | 47 | 345 | 3.5 | 8.7 | 0.03 | 0.57 | 0.51 | 93 | 1006.7 |
| 20260506061010 | 47 | 47 | 2.6 | 8.7 | 0.04 | 0.57 | 0.51 | 93 | 1006.7 |
| 20260506051008 | 47 | 5 | 3.5 | 6.1 | 0.07 | 0.53 | 0.46 | 93 | 1006.6 |
| 20260506050507 | 47 | 15 | 2.6 | 7.0 | 0.07 | 0.52 | 0.45 | 93 | 1006.5 |
| 20260506045004 | 47 | 333 | 2.6 | 7.0 | 0.07 | 0.51 | 0.44 | 93 | 1006.6 |
| 20260506044512 | 47 | 331 | 4.3 | 8.7 | 0.07 | 0.50 | 0.43 | 93 | 1006.6 |
| 20260506044007 | 47 | 5 | 4.3 | 9.6 | 0.07 | 0.49 | 0.42 | 93 | 1006.6 |
| 20260506043510 | 47 | 328 | 3.5 | 9.6 | 0.07 | 0.49 | 0.42 | 93 | 1006.6 |
| 20260506043010 | 47 | 25 | 3.5 | 9.6 | 0.07 | 0.48 | 0.41 | 93 | 1006.6 |
| 20260506042508 | 47 | 315 | 5.2 | 7.8 | 0.07 | 0.48 | 0.40 | 93 | 1006.7 |
| 20260506042013 | 47 | 350 | 3.5 | 7.8 | 0.06 | 0.47 | 0.40 | 93 | 1006.7 |
| 20260506041519 | 47 | 5 | 4.3 | 9.6 | 0.06 | 0.46 | 0.39 | 93 | 1006.7 |
| 20260506040505 | 48 | 340 | 5.2 | 7.8 | 0.06 | 0.45 | 0.38 | 93 | 1006.7 |
| 20260506040023 | 48 | 352 | 4.3 | 9.6 | 0.05 | 0.44 | 0.37 | 93 | 1006.7 |
| 20260506035504 | 48 | 302 | 5.2 | 9.6 | 0.05 | 0.44 | 0.37 | 93 | 1006.7 |
| 20260506035009 | 48 | 309 | 4.3 | 8.7 | 0.04 | 0.44 | 0.36 | 93 | 1006.7 |
| 20260506034518 | 48 | 352 | 4.3 | 8.7 | 0.05 | 0.44 | 0.36 | 93 | 1006.7 |
| 20260506034005 | 48 | 333 | 3.5 | 8.7 | 0.04 | 0.43 | 0.35 | 93 | 1006.7 |
| 20260506033507 | 48 | 342 | 4.3 | 8.7 | 0.04 | 0.42 | 0.34 | 93 | 1006.8 |
| 20260506033010 | 48 | 360 | 2.6 | 7.0 | 0.05 | 0.42 | 0.34 | 93 | 1006.8 |
| 20260506032506 | 48 | 5 | 4.3 | 7.8 | 0.04 | 0.41 | 0.33 | 93 | 1006.9 |
| 20260506031523 | 48 | 34 | 1.7 | 7.0 | 0.05 | 0.40 | 0.33 | 93 | 1006.8 |
| 20260506031009 | 48 | 360 | 2.6 | 7.0 | 0.05 | 0.40 | 0.33 | 93 | 1006.9 |
| 20260506030509 | 48 | 5 | 3.5 | 8.7 | 0.05 | 0.40 | 0.32 | 93 | 1006.9 |
| 20260506030009 | 48 | 336 | 4.3 | 8.7 | 0.06 | 0.40 | 0.32 | 93 | 1007.0 |
| 20260506025510 | 48 | 350 | 2.6 | 7.8 | 0.06 | 0.39 | 0.31 | 93 | 1007.0 |
| 20260506025010 | 48 | 59 | 2.6 | 7.8 | 0.07 | 0.39 | 0.31 | 93 | 1007.1 |
| 20260506024507 | 48 | 11 | 2.6 | 7.8 | 0.07 | 0.38 | 0.30 | 93 | 1007.1 |
| 20260506024004 | 48 | 70 | 4.3 | 7.8 | 0.07 | 0.38 | 0.30 | 93 | 1007.1 |
| 20260506023505 | 48 | 338 | 3.5 | 7.8 | 0.08 | 0.37 | 0.29 | 93 | 1007.1 |
| 20260506022509 | 48 | 15 | 3.5 | 7.8 | 0.09 | 0.37 | 0.29 | 93 | 1007.1 |
| 20260506022009 | 48 | 56 | 1.7 | 7.0 | 0.09 | 0.36 | 0.28 | 93 | 1007.1 |
| 20260506021503 | 48 | 43 | 3.5 | 7.8 | 0.09 | 0.35 | 0.27 | 93 | 1007.2 |
| 20260506021006 | 48 | 350 | 1.7 | 7.8 | 0.09 | 0.35 | 0.27 | 93 | 1007.2 |
| 20260506020506 | 48 | 333 | 1.7 | 7.0 | 0.09 | 0.34 | 0.26 | 93 | 1007.3 |
| 20260506020018 | 48 | 9 | 2.6 | 10.4 | 0.09 | 0.33 | 0.25 | 93 | 1007.2 |
| 20260506015504 | 48 | 344 | 2.6 | 10.4 | 0.09 | 0.33 | 0.25 | 93 | 1007.3 |
| 20260506015007 | 48 | 360 | 3.5 | 9.6 | 0.08 | 0.32 | 0.24 | 93 | 1007.3 |
| 20260506014519 | 48 | 341 | 5.2 | 11.3 | 0.08 | 0.31 | 0.23 | 93 | 1007.2 |
| 20260506014008 | 48 | 65 | 6.1 | 11.3 | 0.08 | 0.30 | 0.22 | 93 | 1007.3 |
| 20260506013505 | 48 | 348 | 2.6 | 7.8 | 0.07 | 0.29 | 0.21 | 93 | 1007.3 |
| 20260506013006 | 48 | 360 | 2.6 | 7.8 | 0.07 | 0.29 | 0.20 | 93 | 1007.4 |
| 20260506012505 | 48 | 352 | 4.3 | 7.8 | 0.07 | 0.28 | 0.19 | 93 | 1007.4 |
| 20260506012005 | 48 | 342 | 4.3 | 10.4 | 0.07 | 0.27 | 0.18 | 93 | 1007.4 |
| 20260506011517 | 48 | 24 | 4.3 | 10.4 | 0.07 | 0.26 | 0.18 | 93 | 1007.4 |
| 20260506011006 | 48 | 340 | 2.6 | 8.7 | 0.07 | 0.27 | 0.18 | 93 | 1007.4 |
| 20260506010518 | 48 | 16 | 3.5 | 8.7 | 0.07 | 0.26 | 0.17 | 93 | 1007.4 |
| 20260506005509 | 48 | 323 | 5.2 | 10.4 | 0.06 | 0.25 | 0.15 | 93 | 1007.5 |
| 20260506005006 | 48 | 9 | 3.5 | 8.7 | 0.06 | 0.25 | 0.15 | 93 | 1007.5 |
| 20260506004508 | 48 | 5 | 3.5 | 8.7 | 0.05 | 0.24 | 0.14 | 93 | 1007.5 |
| 20260506004006 | 48 | 15 | 1.7 | 10.4 | 0.05 | 0.23 | 0.14 | 93 | 1007.6 |
| 20260506003024 | 48 | 360 | 4.3 | 9.6 | 0.04 | 0.22 | 0.12 | 92 | 1007.6 |
| 20260506002005 | 48 | 350 | 5.2 | 8.7 | 0.04 | 0.22 | 0.11 | 92 | 1007.7 |
| 20260506001508 | 48 | 314 | 3.5 | 8.7 | 0.03 | 0.21 | 0.11 | 92 | 1007.7 |
| 20260506001006 | 48 | 336 | 4.3 | 8.7 | 0.04 | 0.22 | 0.11 | 92 | 1007.7 |
| 20260506000508 | 48 | 360 | 6.1 | 8.7 | 0.03 | 0.21 | 0.10 | 92 | 1007.8 |
| 20260506000013 | 48 | 360 | 4.3 | 7.8 | 0.03 | 0.21 | 0.10 | 92 | 1007.8 |
| 20260505235508 | 48 | 13 | 3.5 | 11.3 | 0.03 | 0.21 | 0.09 | 92 | 1007.9 |
| 20260505234516 | 48 | 350 | 3.5 | 9.6 | 0.03 | 0.22 | 0.09 | 92 | 1008.0 |
| 20260505234009 | 48 | 5 | 3.5 | 9.6 | 0.03 | 0.21 | 0.08 | 92 | 1008.1 |
| 20260505233507 | 48 | 5 | 5.2 | 9.6 | 0.03 | 0.22 | 0.08 | 92 | 1008.1 |
| 20260505233014 | 48 | 346 | 3.5 | 8.7 | 0.03 | 0.21 | 0.07 | 92 | 1008.1 |
| 20260505232009 | 48 | 352 | 4.3 | 11.3 | 0.03 | 0.21 | 0.07 | 92 | 1008.2 |
| 20260505231513 | 48 | 329 | 2.6 | 11.3 | 0.04 | 0.21 | 0.07 | 91 | 1008.2 |
| 20260505230509 | 48 | 350 | 2.6 | 8.7 | 0.05 | 0.21 | 0.06 | 91 | 1008.3 |
| 20260505225507 | 48 | 9 | 2.6 | 11.3 | 0.06 | 0.22 | 0.06 | 91 | 1008.4 |
| 20260505225009 | 49 | 342 | 4.3 | 11.3 | 0.07 | 0.22 | 0.06 | 91 | 1008.5 |
| 20260505224512 | 49 | 352 | 5.2 | 10.4 | 0.06 | 0.21 | 0.05 | 91 | 1008.6 |
| 20260505223510 | 49 | 346 | 5.2 | 9.6 | 0.06 | 0.20 | 0.04 | 91 | 1008.6 |
| 20260505222510 | 49 | 360 | 5.2 | 10.4 | 0.05 | 0.20 | 0.03 | 91 | 1008.7 |
| 20260505222010 | 49 | 360 | 6.1 | 10.4 | 0.05 | 0.19 | 0.03 | 90 | 1008.7 |
| 20260505221011 | 49 | 351 | 2.6 | 7.0 | 0.03 | 0.18 | 0.01 | 90 | 1008.6 |
| 20260505220022 | 49 | 349 | 4.3 | 7.8 | 0.03 | 0.16 | 0.00 | 90 | 1008.6 |
| 20260505215510 | 49 | 318 | 2.6 | 7.8 | 0.03 | 0.16 | 0.16 | 90 | 1008.8 |
| 20260505215011 | 50 | 9 | 1.7 | 7.8 | 0.02 | 0.15 | 0.15 | 90 | 1008.8 |
| 20260505214516 | 50 | 352 | 2.6 | 9.6 | 0.02 | 0.16 | 0.15 | 90 | 1008.9 |
| 20260505214011 | 50 | 24 | 2.6 | 9.6 | 0.02 | 0.16 | 0.15 | 89 | 1008.9 |
| 20260505213508 | 50 | 360 | 3.5 | 7.8 | 0.01 | 0.15 | 0.14 | 89 | 1008.9 |
| 20260505212511 | 50 | 15 | 3.5 | 10.4 | 0.01 | 0.17 | 0.14 | 89 | 1008.9 |
| 20260505212012 | 50 | 21 | 4.3 | 10.4 | 0.00 | 0.17 | 0.14 | 89 | 1009.0 |
| 20260505211522 | 50 | 68 | 2.6 | 8.7 | 0.00 | 0.18 | 0.14 | 89 | 1009.1 |
| 20260505211006 | 50 | 349 | 2.6 | 7.8 | 0.00 | 0.23 | 0.14 | 89 | 1009.1 |
| 20260505210025 | 50 | 12 | 2.6 | 10.4 | 0.00 | 0.24 | 0.13 | 88 | 1009.1 |
| 20260505205008 | 50 | 32 | 1.7 | 7.8 | 0.00 | 0.24 | 0.13 | 88 | 1009.0 |
| 20260505204525 | 50 | 312 | 2.6 | 7.8 | 0.00 | 0.24 | 0.13 | 88 | 1009.0 |
| 20260505204015 | 50 | 346 | 2.6 | 8.7 | 0.00 | 0.24 | 0.13 | 88 | 1008.9 |
| 20260505203507 | 50 | 26 | 3.5 | 8.7 | 0.00 | 0.24 | 0.13 | 89 | 1009.0 |
| 20260505203029 | 50 | 42 | 3.5 | 9.6 | 0.00 | 0.24 | 0.13 | 89 | 1009.0 |
| 20260505202512 | 50 | 9 | 4.3 | 9.6 | 0.00 | 0.24 | 0.13 | 89 | 1009.0 |
| 20260505202008 | 51 | 352 | 4.3 | 8.7 | 0.00 | 0.25 | 0.13 | 89 | 1009.0 |
| 20260505201009 | 51 | 39 | 2.6 | 8.7 | 0.00 | 0.25 | 0.13 | 90 | 1008.9 |
| 20260505194008 | 51 | 288 | 2.6 | 5.2 | 0.00 | 0.25 | 0.13 | 90 | 1008.9 |
| 20260505193028 | 51 | 327 | 2.6 | 7.0 | 0.00 | 0.25 | 0.13 | 91 | 1008.9 |
| 20260505192511 | 51 | 350 | 1.7 | 2.6 | 0.00 | 0.25 | 0.13 | 91 | 1008.9 |
| 20260505192012 | 51 | 350 | 0.9 | 4.3 | 0.00 | 0.26 | 0.13 | 91 | 1008.9 |
| 20260505191523 | 51 | 5 | 1.7 | 4.3 | 0.00 | 0.28 | 0.13 | 91 | 1008.9 |
| 20260505191012 | 51 | 360 | 0.9 | 3.5 | 0.00 | 0.29 | 0.13 | 91 | 1008.8 |
| 20260505190512 | 51 | 9 | 1.7 | 4.3 | 0.00 | 0.31 | 0.13 | 91 | 1008.7 |
| 20260505190029 | 51 | 23 | 2.6 | 4.3 | 0.00 | 0.33 | 0.13 | 91 | 1008.8 |
| 20260505185513 | 51 | 20 | 0.9 | 4.3 | 0.00 | 0.34 | 0.13 | 91 | 1008.7 |
| 20260505185009 | 51 | 42 | 1.7 | 4.3 | 0.00 | 0.36 | 0.13 | 91 | 1008.7 |
| 20260505184523 | 51 | 36 | 0.9 | 4.3 | 0.00 | 0.37 | 0.13 | 91 | 1008.8 |
| 20260505184011 | 51 | 34 | 0.9 | 3.5 | 0.00 | 0.37 | 0.13 | 91 | 1008.8 |
| 20260505183510 | 51 | 24 | 0.9 | 3.5 | 0.00 | 0.38 | 0.13 | 91 | 1008.7 |
| 20260505183018 | 51 | 13 | 0.9 | 2.6 | 0.00 | 0.39 | 0.13 | 91 | 1008.7 |
| 20260505182510 | 51 | 13 | 0.9 | 2.6 | 0.00 | 0.40 | 0.13 | 91 | 1008.8 |
| 20260505182013 | 51 | 352 | 0.9 | 1.7 | 0.00 | 0.40 | 0.13 | 91 | 1008.8 |
| 20260505181532 | 51 | 342 | 0.0 | 2.6 | 0.00 | 0.40 | 0.13 | 91 | 1008.7 |
| 20260505181011 | 51 | 352 | 0.9 | 3.5 | 0.00 | 0.40 | 0.13 | 91 | 1008.8 |
| 20260505180511 | 51 | 9 | 0.9 | 3.5 | 0.00 | 0.40 | 0.13 | 91 | 1008.8 |
| 20260505180026 | 51 | 32 | 0.9 | 1.7 | 0.00 | 0.42 | 0.13 | 91 | 1008.9 |
| 20260505175510 | 51 | 360 | 0.9 | 2.6 | 0.00 | 0.44 | 0.13 | 91 | 1008.9 |
| 20260505175014 | 51 | 49 | 0.9 | 2.6 | 0.00 | 0.45 | 0.13 | 90 | 1008.9 |
| 20260505174510 | 51 | 55 | 0.9 | 2.6 | 0.00 | 0.45 | 0.13 | 90 | 1008.8 |
| 20260505174012 | 51 | 9 | 0.9 | 3.5 | 0.00 | 0.46 | 0.13 | 91 | 1008.9 |
| 20260505173507 | 51 | 10 | 0.9 | 3.5 | 0.00 | 0.47 | 0.13 | 90 | 1008.9 |
| 20260505172007 | 51 | 352 | 2.6 | 4.3 | 0.00 | 0.59 | 0.13 | 90 | 1008.9 |
| 20260505171511 | 51 | 352 | 1.7 | 4.3 | 0.00 | 0.72 | 0.13 | 90 | 1008.9 |
| 20260505171004 | 51 | 10 | 0.9 | 3.5 | 0.00 | 0.74 | 0.13 | 90 | 1008.9 |
| 20260505170019 | 50 | 96 | 2.6 | 7.0 | 0.00 | 0.81 | 0.13 | 90 | 1009.0 |
| 20260505165506 | 50 | 5 | 2.6 | 7.0 | 0.00 | 0.82 | 0.13 | 91 | 1009.0 |
| 20260505165004 | 50 | 34 | 2.6 | 6.1 | 0.00 | 0.85 | 0.13 | 91 | 1009.0 |
| 20260505164519 | 50 | 78 | 2.6 | 7.0 | 0.00 | 0.96 | 0.13 | 91 | 1009.0 |
| 20260505164007 | 50 | 15 | 1.7 | 8.7 | 0.00 | 0.97 | 0.13 | 91 | 1009.0 |
| 20260505163504 | 50 | 326 | 3.5 | 8.7 | 0.00 | 0.99 | 0.13 | 91 | 1009.1 |
| 20260505163016 | 50 | 352 | 2.6 | 7.0 | 0.00 | 0.99 | 0.13 | 91 | 1009.1 |
| 20260505162509 | 50 | 5 | 2.6 | 7.0 | 0.00 | 0.99 | 0.13 | 91 | 1009.1 |
| 20260505153019 | 50 | 360 | 1.7 | 10.4 | 0.00 | 1.07 | 0.13 | 91 | 1009.4 |
| 20260505152504 | 50 | 17 | 4.3 | 10.4 | 0.00 | 1.07 | 0.13 | 91 | 1009.4 |
| 20260505152011 | 50 | 28 | 1.7 | 7.0 | 0.00 | 1.07 | 0.13 | 91 | 1009.5 |
| 20260505151531 | 50 | 345 | 4.3 | 8.7 | 0.00 | 1.07 | 0.13 | 91 | 1009.5 |
| 20260505151008 | 50 | 337 | 4.3 | 8.7 | 0.00 | 1.07 | 0.13 | 91 | 1009.6 |
| 20260505150510 | 50 | 9 | 3.5 | 7.0 | 0.00 | 1.07 | 0.13 | 91 | 1009.6 |
| 20260505140508 | 50 | 352 | 2.6 | 10.4 | 0.00 | 1.07 | 0.13 | 91 | 1009.9 |
| 20260505125011 | 50 | 275 | 1.7 | 5.2 | 0.00 | 1.07 | 0.13 | 92 | 1010.5 |
| 20260505124518 | 50 | 317 | 0.9 | 7.0 | 0.00 | 1.07 | 0.13 | 92 | 1010.4 |
| 20260505124009 | 50 | 94 | 2.6 | 8.7 | 0.00 | 1.07 | 0.13 | 92 | 1010.5 |
| 20260505123507 | 50 | 71 | 3.5 | 8.7 | 0.00 | 1.07 | 0.13 | 92 | 1010.6 |
| 20260505123026 | 50 | 69 | 4.3 | 7.8 | 0.01 | 1.07 | 0.13 | 92 | 1010.7 |
| 20260505122507 | 50 | 51 | 2.6 | 7.8 | 0.01 | 1.07 | 0.13 | 92 | 1010.7 |
| 20260505122008 | 50 | 352 | 4.3 | 7.8 | 0.01 | 1.07 | 0.13 | 92 | 1010.7 |
| 20260505121518 | 50 | 28 | 2.6 | 7.8 | 0.01 | 1.07 | 0.13 | 93 | 1010.7 |
| 20260505121006 | 50 | 40 | 2.6 | 7.0 | 0.01 | 1.07 | 0.13 | 93 | 1010.6 |
| 20260505120507 | 50 | 40 | 2.6 | 7.0 | 0.01 | 1.07 | 0.13 | 93 | 1010.7 |
| 20260505120051 | 50 | 13 | 3.5 | 7.0 | 0.00 | 1.06 | 0.12 | 92 | 1010.7 |
| 20260505115508 | 49 | 352 | 2.6 | 6.1 | 0.00 | 1.06 | 0.12 | 92 | 1010.8 |
| 20260505115006 | 49 | 5 | 1.7 | 7.8 | 0.00 | 1.06 | 0.12 | 92 | 1010.8 |
| 20260505114524 | 49 | 30 | 3.5 | 7.8 | 0.00 | 1.06 | 0.12 | 92 | 1010.8 |
| 20260505114008 | 49 | 352 | 3.5 | 7.0 | 0.00 | 1.06 | 0.12 | 92 | 1010.9 |
| 20260505113510 | 49 | 31 | 2.6 | 9.6 | 0.00 | 1.06 | 0.12 | 92 | 1010.9 |
| 20260505113024 | 49 | 23 | 1.7 | 9.6 | 0.00 | 1.05 | 0.11 | 92 | 1010.9 |
| 20260505112513 | 49 | 78 | 1.7 | 8.7 | 0.00 | 1.05 | 0.11 | 92 | 1010.9 |
| 20260505112013 | 49 | 10 | 3.5 | 8.7 | 0.00 | 1.05 | 0.11 | 92 | 1010.9 |
| 20260505111521 | 48 | 17 | 3.5 | 8.7 | 0.00 | 1.05 | 0.11 | 92 | 1011.0 |
| 20260505111010 | 48 | 69 | 3.5 | 9.6 | 0.00 | 1.05 | 0.11 | 92 | 1011.0 |
| 20260505110508 | 48 | 9 | 4.3 | 9.6 | 0.00 | 1.05 | 0.11 | 92 | 1011.0 |